When you browse on this site, cookies collect data to enhance your experience and personalize the content and advertising you see.
Visit our Privacy Policy to learn more. By continuing to use the site, you agree to this use of cookies and data.

Hourly Weather Ario de Rayon

Today, 3 July, Friday

Time Temperature Precipitation Wind Pressure Humidity
00:00 +19°C° 0 mm 1 mps 632 mmHg 90%
01:00 +19°C° 0 mm 1 mps 632 mmHg 90%
02:00 +18°C° 0 mm 1 mps 631 mmHg 91%
03:00 +16°C° 0.4 mm 0 mps 632 mmHg 92%
04:00 +16°C° 0.4 mm 0 mps 632 mmHg 93%
05:00 +16°C° 0.4 mm 0 mps 632 mmHg 94%
06:00 +20°C° 0.1 mm 1 mps 633 mmHg 88%
07:00 +22°C° 0.1 mm 1 mps 634 mmHg 82%
08:00 +23°C° 0.1 mm 1 mps 635 mmHg 76%
09:00 +25°C° 0.1 mm 1 mps 635 mmHg 68%
10:00 +27°C° 0.1 mm 1 mps 635 mmHg 59%
11:00 +30°C° 0.1 mm 1 mps 636 mmHg 50%
12:00 +30°C° 0.5 mm 1 mps 635 mmHg 49%
13:00 +30°C° 0.5 mm 1 mps 634 mmHg 48%
14:00 +30°C° 0.5 mm 1 mps 634 mmHg 47%
15:00 +28°C° 0.6 mm 1 mps 633 mmHg 52%
16:00 +27°C° 0.6 mm 2 mps 633 mmHg 58%
17:00 +26°C° 0.6 mm 2 mps 632 mmHg 63%
18:00 +24°C° 0.3 mm 2 mps 632 mmHg 69%
19:00 +21°C° 0.3 mm 2 mps 632 mmHg 76%
20:00 +21°C° 0.3 mm 1 mps 632 mmHg 82%
21:00 +20°C° 0.1 mm 1 mps 632 mmHg 83%
22:00 +19°C° 0.1 mm 1 mps 632 mmHg 84%
23:00 +19°C° 0.1 mm 1 mps 633 mmHg 85%

Tomorrow, 4 July, Saturday

Time Temperature Precipitation Wind Pressure Humidity
00:00 +18°C° 0.1 mm 1 mps 632 mmHg 86%
01:00 +16°C° 0.1 mm 0 mps 632 mmHg 86%
02:00 +16°C° 0.1 mm 0 mps 632 mmHg 87%
03:00 +16°C° 0.1 mm 0 mps 632 mmHg 87%
04:00 +15°C° 0.1 mm 0 mps 632 mmHg 88%
05:00 +15°C° 0.1 mm 0 mps 632 mmHg 89%
06:00 +17°C° 0 mm 0 mps 633 mmHg 82%
07:00 +21°C° 0 mm 1 mps 634 mmHg 75%
08:00 +24°C° 0 mm 1 mps 635 mmHg 69%
09:00 +26°C° 0.1 mm 1 mps 635 mmHg 61%
10:00 +28°C° 0.1 mm 1 mps 636 mmHg 53%
11:00 +31°C° 0.1 mm 1 mps 636 mmHg 45%
12:00 +31°C° 0.3 mm 1 mps 636 mmHg 44%
13:00 +31°C° 0.3 mm 1 mps 635 mmHg 43%
14:00 +31°C° 0.3 mm 1 mps 635 mmHg 42%
15:00 +29°C° 0.3 mm 1 mps 634 mmHg 51%
16:00 +27°C° 0.3 mm 1 mps 633 mmHg 59%
17:00 +25°C° 0.3 mm 2 mps 632 mmHg 68%
18:00 +24°C° 0.2 mm 2 mps 632 mmHg 72%
19:00 +22°C° 0.2 mm 1 mps 632 mmHg 77%
20:00 +21°C° 0.2 mm 1 mps 632 mmHg 82%
21:00 +20°C° 0.2 mm 1 mps 632 mmHg 83%
22:00 +20°C° 0.2 mm 1 mps 632 mmHg 85%
23:00 +19°C° 0.2 mm 1 mps 632 mmHg 87%

Day after tomorrow, 5 July, Sunday

Time Temperature Precipitation Wind Pressure Humidity
00:00 +19°C° 0.1 mm 1 mps 632 mmHg 88%
01:00 +17°C° 0.1 mm 0 mps 632 mmHg 89%
02:00 +17°C° 0.1 mm 0 mps 632 mmHg 89%
03:00 +16°C° 0 mm 0 mps 632 mmHg 90%
04:00 +16°C° 0 mm 0 mps 632 mmHg 90%
05:00 +16°C° 0 mm 0 mps 632 mmHg 91%
06:00 +18°C° 0 mm 0 mps 633 mmHg 83%
07:00 +21°C° 0 mm 0 mps 634 mmHg 76%
08:00 +23°C° 0 mm 0 mps 635 mmHg 68%
09:00 +26°C° 0.1 mm 0 mps 635 mmHg 59%
10:00 +28°C° 0.1 mm 0 mps 636 mmHg 51%
11:00 +30°C° 0.1 mm 0 mps 636 mmHg 42%
12:00 +32°C° 0.1 mm 1 mps 635 mmHg 39%
13:00 +33°C° 0.1 mm 1 mps 635 mmHg 36%
14:00 +33°C° 0.1 mm 1 mps 634 mmHg 33%
15:00 +31°C° 0.2 mm 1 mps 633 mmHg 40%
16:00 +29°C° 0.2 mm 2 mps 632 mmHg 48%
17:00 +27°C° 0.2 mm 2 mps 631 mmHg 55%
18:00 +25°C° 0.1 mm 2 mps 631 mmHg 65%
19:00 +23°C° 0.1 mm 2 mps 631 mmHg 74%
20:00 +21°C° 0.1 mm 1 mps 631 mmHg 83%
21:00 +20°C° 0.1 mm 1 mps 631 mmHg 85%
22:00 +20°C° 0.1 mm 1 mps 631 mmHg 86%
23:00 +19°C° 0.1 mm 1 mps 631 mmHg 88%

6 July, Monday

Time Temperature Precipitation Wind Pressure Humidity
00:00 +19°C° 0.1 mm 1 mps 631 mmHg 88%
01:00 +19°C° 0.1 mm 1 mps 631 mmHg 89%
02:00 +19°C° 0.1 mm 1 mps 631 mmHg 89%
03:00 +18°C° 0 mm 1 mps 631 mmHg 90%
04:00 +18°C° 0 mm 1 mps 631 mmHg 90%
05:00 +18°C° 0 mm 1 mps 631 mmHg 91%
06:00 +21°C° 0 mm 1 mps 632 mmHg 82%
07:00 +21°C° 0 mm 0 mps 633 mmHg 72%
08:00 +24°C° 0 mm 0 mps 635 mmHg 63%
09:00 +26°C° 0 mm 0 mps 635 mmHg 56%
10:00 +30°C° 0 mm 1 mps 635 mmHg 49%
11:00 +32°C° 0 mm 1 mps 636 mmHg 41%
12:00 +31°C° 0.1 mm 1 mps 635 mmHg 42%
13:00 +31°C° 0.1 mm 1 mps 634 mmHg 42%
14:00 +30°C° 0.1 mm 2 mps 633 mmHg 43%
15:00 +29°C° 0.3 mm 2 mps 632 mmHg 49%
16:00 +28°C° 0.3 mm 2 mps 632 mmHg 55%
17:00 +26°C° 0.3 mm 2 mps 631 mmHg 61%
18:00 +25°C° 0.2 mm 2 mps 631 mmHg 68%
19:00 +23°C° 0.2 mm 2 mps 631 mmHg 74%
20:00 +20°C° 0.2 mm 2 mps 631 mmHg 81%
21:00 +21°C° 0.1 mm 1 mps 631 mmHg 82%
22:00 +20°C° 0.1 mm 1 mps 632 mmHg 84%
23:00 +20°C° 0.1 mm 1 mps 632 mmHg 86%

7 July, Tuesday

Time Temperature Precipitation Wind Pressure Humidity
00:00 +19°C° 0.3 mm 1 mps 632 mmHg 87%
01:00 +19°C° 0.3 mm 1 mps 632 mmHg 89%
02:00 +19°C° 0.3 mm 1 mps 632 mmHg 91%
03:00 +19°C° 0.2 mm 1 mps 632 mmHg 91%
04:00 +18°C° 0.2 mm 1 mps 632 mmHg 92%
05:00 +18°C° 0.2 mm 1 mps 632 mmHg 92%
06:00 +20°C° 0.1 mm 1 mps 633 mmHg 85%
07:00 +23°C° 0.1 mm 1 mps 634 mmHg 77%
08:00 +25°C° 0.1 mm 1 mps 635 mmHg 69%
09:00 +26°C° 0.2 mm 1 mps 635 mmHg 63%
10:00 +28°C° 0.2 mm 1 mps 635 mmHg 56%
11:00 +29°C° 0.2 mm 2 mps 636 mmHg 50%
12:00 +29°C° 0.4 mm 2 mps 635 mmHg 51%
13:00 +29°C° 0.4 mm 2 mps 634 mmHg 52%
14:00 +29°C° 0.4 mm 2 mps 634 mmHg 54%
15:00 +28°C° 0.6 mm 2 mps 633 mmHg 58%
16:00 +27°C° 0.6 mm 2 mps 632 mmHg 62%
17:00 +26°C° 0.6 mm 2 mps 632 mmHg 66%
18:00 +24°C° 0.4 mm 2 mps 632 mmHg 72%
19:00 +23°C° 0.4 mm 2 mps 632 mmHg 78%
20:00 +20°C° 0.4 mm 2 mps 632 mmHg 84%
21:00 +20°C° 0.4 mm 1 mps 632 mmHg 87%
22:00 +20°C° 0.4 mm 1 mps 633 mmHg 89%
23:00 +19°C° 0.4 mm 1 mps 633 mmHg 92%

8 July, Wednesday

Time Temperature Precipitation Wind Pressure Humidity
00:00 +19°C° 0.9 mm 1 mps 633 mmHg 93%
01:00 +19°C° 0.9 mm 1 mps 633 mmHg 93%
02:00 +19°C° 0.9 mm 1 mps 632 mmHg 94%
03:00 +19°C° 1.2 mm 1 mps 632 mmHg 94%
04:00 +19°C° 1.2 mm 1 mps 632 mmHg 94%
05:00 +18°C° 1.2 mm 1 mps 632 mmHg 94%
06:00 +19°C° 0.3 mm 1 mps 633 mmHg 91%
07:00 +18°C° 0.3 mm 0 mps 633 mmHg 88%
08:00 +19°C° 0.3 mm 0 mps 634 mmHg 85%
09:00 +22°C° 0.3 mm 0 mps 634 mmHg 75%
10:00 +26°C° 0.3 mm 1 mps 635 mmHg 65%
11:00 +29°C° 0.3 mm 1 mps 635 mmHg 56%
12:00 +28°C° 0.8 mm 1 mps 635 mmHg 57%
13:00 +28°C° 0.8 mm 1 mps 634 mmHg 58%
14:00 +28°C° 0.8 mm 2 mps 633 mmHg 60%
15:00 +26°C° 0.8 mm 2 mps 633 mmHg 66%
16:00 +25°C° 0.8 mm 2 mps 632 mmHg 72%
17:00 +22°C° 0.8 mm 3 mps 631 mmHg 78%
18:00 +21°C° 0.4 mm 2 mps 632 mmHg 82%
19:00 +21°C° 0.4 mm 1 mps 632 mmHg 86%
20:00 +20°C° 0.4 mm 1 mps 632 mmHg 90%
21:00 +20°C° 0.8 mm 1 mps 633 mmHg 91%
22:00 +20°C° 0.8 mm 1 mps 633 mmHg 92%
23:00 +19°C° 0.8 mm 1 mps 634 mmHg 93%
Show more